GW4718 Weather Reports


time (UTC)temp
C
wind
direction
speed
KPH
gust
KPH
rain 1hr
cm
rain 24hr
cm
rain mn
cm
humidity
%
barometer
mb
20260904135719 27 49 0.0 3.2 0.00 0.53 0.53 77 1020.8
20260904135215 26 79 3.2 4.8 0.00 0.53 0.53 86 1020.8
20260904134710 25 50 1.6 3.2 0.00 0.53 0.53 90 1020.9
20260904134210 25 110 0.0 1.6 0.00 0.53 0.53 92 1021.1
20260904133705 25 321 0.0 0.0 0.00 0.53 0.53 95 1021.0
20260904133201 23 44 0.0 3.2 0.00 0.53 0.53 96 1021.0
20260904132700 23 64 4.8 4.8 0.00 0.53 0.53 96 1021.0
20260904132156 23 18 0.0 0.0 0.00 0.53 0.53 97 1021.1
20260904131654 23 137 0.0 0.0 0.00 0.53 0.53 96 1021.1
20260904131150 23 273 0.0 0.0 0.00 0.53 0.53 97 1021.1
20260904130645 23 78 0.0 4.8 0.00 0.53 0.53 97 1021.1
20260904130145 23 346 0.0 6.4 0.00 0.53 0.53 98 1021.0
20260904125641 22 59 8.0 16.1 0.00 0.53 0.53 98 1021.0
20260904125136 22 160 3.2 3.2 0.00 0.53 0.53 99 1021.3
20260904124631 21 52 8.0 11.3 0.00 0.53 0.53 99 1021.1
20260904124127 21 194 0.0 0.0 0.00 0.53 0.53 99 1021.4
20260904123627 21 13 0.0 0.0 0.00 0.53 0.53 99 1021.4
20260904123123 21 108 0.0 0.0 0.00 0.53 0.53 99 1021.5
20260904122617 20 61 0.0 0.0 0.00 0.53 0.53 99 1021.3
20260904122112 20 239 0.0 0.0 0.00 0.53 0.53 99 1021.4
20260904121608 20 86 6.4 9.7 0.00 0.53 0.53 99 1021.2
20260904121103 20 311 0.0 0.0 0.00 0.53 0.53 99 1021.2
20260904120559 20 115 0.0 0.0 0.00 0.53 0.53 99 1021.1
20260904120055 20 112 0.0 0.0 0.00 0.53 0.53 99 1021.2
20260904115550 20 60 0.0 0.0 0.00 0.53 0.53 99 1020.9
20260904115044 20 66 0.0 1.6 0.00 0.53 0.53 99 1021.1
20260904114539 19 77 0.0 0.0 0.00 0.53 0.53 99 1021.0
20260904114038 19 110 0.0 0.0 0.00 0.53 0.53 99 1020.7
20260904113533 19 278 0.0 0.0 0.00 0.53 0.53 99 1021.0
20260904113033 18 58 0.0 0.0 0.00 0.53 0.53 99 1020.8
20260904112528 19 273 0.0 0.0 0.00 0.53 0.53 99 1021.0
20260904112024 19 138 0.0 0.0 0.00 0.53 0.53 99 1021.0
20260904111519 18 66 0.0 0.0 0.00 0.53 0.53 99 1021.0
20260904111015 18 260 0.0 0.0 0.00 0.53 0.53 99 1021.0
20260904110514 18 165 0.0 0.0 0.00 0.53 0.53 99 1021.2
20260904110011 18 242 0.0 0.0 0.00 0.53 0.53 99 1021.0
20260904105509 18 63 0.0 0.0 0.00 0.53 0.53 99 1021.0
20260904105005 18 115 0.0 0.0 0.00 0.53 0.53 99 1021.0
20260904104500 18 245 0.0 0.0 0.00 0.53 0.53 99 1020.8
20260904103956 18 54 0.0 0.0 0.00 0.53 0.53 99 1020.7
20260904103451 18 81 0.0 0.0 0.00 0.53 0.53 99 1020.7
20260904102948 18 230 0.0 0.0 0.00 0.53 0.53 99 1020.8
20260904102443 19 130 0.0 0.0 0.00 0.53 0.53 99 1020.7
20260904101933 18 115 0.0 0.0 0.00 0.53 0.53 99 1020.7
20260904101429 18 192 0.0 0.0 0.00 0.53 0.53 99 1020.6
20260904100925 19 300 0.0 0.0 0.00 0.53 0.53 99 1020.6
20260904100421 18 179 0.0 0.0 0.00 0.53 0.53 99 1020.7
20260904095920 19 97 0.0 0.0 0.00 0.53 0.53 99 1020.7
20260904095415 19 292 0.0 0.0 0.00 0.53 0.53 99 1020.6
20260904094905 19 9 0.0 0.0 0.00 0.53 0.53 99 1020.5
20260904094400 19 227 0.0 1.6 0.00 0.53 0.53 99 1020.8
20260904093856 19 33 0.0 0.0 0.00 0.53 0.53 99 1020.4
20260904093356 19 25 0.0 0.0 0.00 0.53 0.53 99 1020.4
20260904092851 19 10 0.0 0.0 0.00 0.53 0.53 99 1020.6
20260904092347 19 82 0.0 0.0 0.00 0.53 0.53 99 1020.5
20260904091838 19 54 0.0 0.0 0.00 0.53 0.53 99 1020.3
20260904091333 19 48 0.0 3.2 0.00 0.53 0.53 99 1020.4
20260904090828 19 319 0.0 0.0 0.00 0.53 0.53 99 1020.1
20260904090324 19 56 0.0 0.0 0.00 0.53 0.53 99 1019.9
20260904085818 19 43 0.0 0.0 0.00 0.53 0.53 99 1020.0
20260904085313 19 89 1.6 3.2 0.00 0.53 0.53 99 1020.1
20260904084808 19 5 0.0 0.0 0.00 0.53 0.53 99 1020.1
20260904084304 19 74 0.0 0.0 0.00 0.53 0.53 99 1020.1
20260904083800 19 68 3.2 4.8 0.00 0.53 0.53 99 1020.3
20260904083257 19 68 0.0 0.0 0.00 0.53 0.53 99 1020.4
20260904082756 19 27 0.0 0.0 0.00 0.53 0.53 99 1020.3
20260904082251 19 101 0.0 0.0 0.00 0.53 0.53 99 1020.6
20260904081747 19 105 0.0 0.0 0.00 0.53 0.53 99 1020.5
20260904081242 19 234 0.0 0.0 0.00 0.53 0.53 99 1020.4
20260904080737 19 64 0.0 0.0 0.00 0.53 0.53 99 1020.5
20260904080228 19 300 0.0 0.0 0.00 0.53 0.53 99 1020.1
20260904075725 19 335 0.0 1.6 0.00 0.53 0.53 99 1020.1
20260904075224 19 279 0.0 0.0 0.00 0.53 0.53 99 1020.5
20260904074723 19 20 0.0 0.0 0.00 0.53 0.53 99 1020.5
20260904074218 19 220 0.0 0.0 0.00 0.53 0.53 99 1020.5
20260904073714 20 5 0.0 0.0 0.00 0.53 0.53 99 1020.6
20260904073210 20 1 0.0 0.0 0.00 0.53 0.53 99 1020.3
20260904072705 20 22 0.0 0.0 0.00 0.53 0.53 99 1020.1
20260904072200 20 35 0.0 0.0 0.00 0.53 0.53 99 1020.1
20260904071656 20 329 0.0 0.0 0.00 0.53 0.53 99 1020.0
20260904071150 20 60 0.0 0.0 0.00 0.53 0.53 99 1020.1
20260904070649 20 90 0.0 0.0 0.00 0.53 0.53 99 1020.0
20260904070143 20 104 0.0 0.0 0.00 0.53 0.53 99 1019.8
20260904065638 20 324 0.0 0.0 0.00 0.53 0.53 99 1019.9
20260904065136 20 78 0.0 0.0 0.00 0.53 0.53 99 1019.8
20260904064631 20 72 0.0 0.0 0.00 0.53 0.53 99 1019.7
20260904064130 20 50 0.0 0.0 0.00 0.53 0.53 99 1020.1
20260904063626 20 44 0.0 0.0 0.00 0.53 0.53 99 1020.0
20260904063121 20 35 0.0 0.0 0.00 0.53 0.53 99 1020.0
20260904062618 20 35 0.0 0.0 0.00 0.53 0.53 99 1020.1
20260904062113 20 43 0.0 0.0 0.00 0.53 0.53 99 1020.0
20260904061609 20 57 0.0 0.0 0.00 0.53 0.53 99 1020.0
20260904061105 20 196 0.0 0.0 0.00 0.53 0.53 99 1019.9
20260904060601 20 192 0.0 0.0 0.00 0.53 0.53 99 1020.3
20260904060057 20 93 0.0 0.0 0.00 0.53 0.53 99 1020.3
20260904055552 20 112 0.0 0.0 0.00 0.53 0.53 99 1020.5
20260904055047 20 93 0.0 0.0 0.00 0.53 0.53 99 1020.5
20260904054543 20 275 0.0 0.0 0.00 0.53 0.53 99 1020.5
20260904054038 20 232 0.0 0.0 0.00 0.53 0.53 99 1021.1
20260904053538 20 302 0.0 0.0 0.00 0.53 0.53 99 1020.9
20260904053033 20 269 0.0 0.0 0.00 0.53 0.53 99 1021.2
20260904052529 20 198 0.0 0.0 0.00 0.53 0.53 99 1021.3
20260904052025 20 250 0.0 0.0 0.00 0.53 0.53 99 1021.6
20260904051522 21 155 0.0 0.0 0.00 0.53 0.53 99 1021.6
20260904051020 21 192 1.6 3.2 0.00 0.53 0.53 99 1021.9
20260904050517 21 156 1.6 3.2 0.00 0.53 0.53 99 1021.8
20260904050013 21 209 4.8 6.4 0.00 0.53 0.53 99 1022.3
20260904045507 21 229 3.2 9.7 0.13 0.53 0.53 98 1021.9
20260904045002 21 38 9.7 11.3 0.79 0.53 0.53 98 1021.7
20260904044458 21 12 0.0 0.0 1.27 0.51 0.51 98 1022.7
20260904043954 21 70 4.8 6.4 0.79 0.38 0.38 98 1022.9
20260904043450 21 226 0.0 1.6 1.80 0.30 0.30 96 1022.9
20260904042946 22 41 3.2 6.4 1.37 0.23 0.23 94 1022.1
20260904042442 23 187 1.6 3.2 0.00 0.00 0.00 91 1022.6
20260904041936 23 19 0.0 1.6 0.00 0.00 0.00 89 1022.2
20260904041433 23 207 0.0 1.6 0.00 0.00 0.00 89 1022.4
20260904040929 23 13 1.6 3.2 0.00 0.00 0.00 88 1022.5
20260904040429 23 265 1.6 1.6 0.00 0.00 0.00 91 1022.3
20260904035925 23 6 0.0 3.2 0.00 0.00 0.00 91 1022.1
20260904035421 22 89 3.2 6.4 0.00 0.00 0.00 92 1022.5
20260904034920 22 37 3.2 6.4 0.00 0.00 0.00 99 1022.6
20260904034415 21 25 0.0 0.0 0.00 0.00 0.00 99 1022.2
20260904033911 22 318 0.0 0.0 0.00 0.00 0.00 99 1022.2
20260904033407 21 76 0.0 0.0 0.00 0.00 0.00 99 1021.9
20260904032903 21 70 0.0 0.0 0.00 0.00 0.00 99 1021.9
20260904032358 21 112 0.0 0.0 0.00 0.00 0.00 99 1022.2
20260904031852 21 186 0.0 0.0 0.00 0.00 0.00 99 1022.1
20260904031347 22 256 0.0 0.0 0.00 0.00 0.00 99 1022.3
20260904030844 21 156 0.0 0.0 0.00 0.00 0.00 99 1022.3
20260904030339 21 218 0.0 0.0 0.00 0.00 0.00 99 1022.4
20260904025834 21 78 0.0 0.0 0.00 0.00 0.00 99 1022.3
20260904025330 21 67 0.0 0.0 0.00 0.00 0.00 99 1022.4
20260904024824 21 100 0.0 0.0 0.00 0.00 0.00 99 1022.3
20260904024319 21 100 0.0 0.0 0.00 0.00 0.00 99 1021.8
20260904023816 21 88 0.0 0.0 0.00 0.00 0.00 99 1021.5
20260904023312 21 186 0.0 0.0 0.00 0.00 0.00 99 1021.4
20260904022810 21 172 0.0 0.0 0.00 0.00 0.00 99 1021.3
20260904022308 21 97 0.0 0.0 0.00 0.00 0.00 99 1021.4
20260904021804 21 157 0.0 0.0 0.00 0.00 0.00 99 1021.5
20260904021258 22 224 0.0 0.0 0.00 0.00 0.00 99 1021.5
20260904020754 22 124 0.0 0.0 0.00 0.00 0.00 99 1021.8
20260904020254 22 180 0.0 0.0 0.00 0.00 0.00 99 1021.9
20260904015752 22 180 0.0 0.0 0.00 0.00 0.00 99 1021.7
20260904015248 22 116 0.0 0.0 0.00 0.00 0.00 99 1021.5
20260904014746 22 107 0.0 0.0 0.00 0.00 0.00 99 1021.5
20260904014241 22 95 0.0 0.0 0.00 0.00 0.00 99 1021.3
20260904013737 22 84 0.0 0.0 0.00 0.00 0.00 98 1021.3
20260904013233 22 85 0.0 0.0 0.00 0.00 0.00 98 1021.2
20260904012729 22 83 0.0 0.0 0.00 0.00 0.00 98 1020.9
20260904012228 22 227 0.0 0.0 0.00 0.00 0.00 97 1021.1
20260904011727 22 119 0.0 0.0 0.00 0.00 0.00 98 1020.8
20260904011223 22 138 0.0 0.0 0.00 0.00 0.00 97 1020.9
20260904010718 23 247 0.0 0.0 0.00 0.00 0.00 97 1020.9
20260904010215 23 132 0.0 0.0 0.00 0.00 0.00 97 1020.9
20260904005710 23 91 0.0 0.0 0.00 0.00 0.00 97 1020.9
20260904005206 23 68 0.0 0.0 0.00 0.00 0.00 97 1020.9
20260904004701 23 198 0.0 0.0 0.00 0.00 0.00 96 1020.9
20260904004200 23 180 0.0 0.0 0.00 0.00 0.00 95 1020.8
20260904003650 23 242 0.0 0.0 0.00 0.00 0.00 95 1021.0
20260904003147 23 113 0.0 0.0 0.00 0.00 0.00 95 1020.8
20260904002643 24 263 0.0 0.0 0.00 0.00 0.00 94 1020.9
20260904002138 24 113 0.0 0.0 0.00 0.00 0.00 94 1020.8
20260904001632 25 193 0.0 0.0 0.00 0.00 0.00 93 1020.8
20260904001131 25 166 0.0 0.0 0.00 0.00 0.00 91 1020.8
20260904000627 25 93 0.0 0.0 0.00 0.00 0.00 92 1020.7
20260904000122 25 171 0.0 0.0 0.00 0.00 0.00 92 1020.9
20260903235622 25 64 0.0 0.0 0.00 0.00 0.00 90 1020.8
20260903235118 26 169 0.0 0.0 0.00 0.00 0.00 89 1020.7
20260903234612 26 67 0.0 0.0 0.00 0.00 0.00 86 1020.8
20260903234108 27 47 0.0 0.0 0.00 0.00 0.00 87 1020.9
20260903233605 27 30 0.0 3.2 0.00 0.00 0.00 83 1021.0
20260903233100 27 17 0.0 0.0 0.00 0.00 0.00 84 1020.8
20260903232555 27 13 0.0 0.0 0.00 0.00 0.00 83 1020.9
20260903232050 27 34 1.6 3.2 0.00 0.00 0.00 81 1020.7
20260903231544 27 33 3.2 4.8 0.00 0.00 0.00 82 1020.4
20260903231038 28 336 0.0 0.0 0.00 0.00 0.00 82 1020.5
20260903230535 28 33 0.0 0.0 0.00 0.00 0.00 79 1020.4
20260903230033 28 44 1.6 3.2 0.00 0.00 0.00 78 1020.0
20260903225531 28 24 0.0 3.2 0.00 0.00 0.00 78 1020.1
20260903225028 28 19 1.6 1.6 0.00 0.00 0.00 78 1020.0
20260903224523 29 14 0.0 0.0 0.00 0.00 0.00 76 1020.1
20260903224019 30 16 1.6 1.6 0.00 0.00 0.00 74 1019.8
20260903223519 30 4 1.6 1.6 0.00 0.00 0.00 72 1019.8
20260903223018 30 1 1.6 1.6 0.00 0.00 0.00 71 1019.6
20260903222513 30 350 0.0 0.0 0.00 0.00 0.00 73 1019.6
20260903222012 30 357 0.0 0.0 0.00 0.00 0.00 74 1019.6
20260903221508 30 325 0.0 0.0 0.00 0.00 0.00 75 1019.6
20260903221005 30 3 1.6 3.2 0.00 0.00 0.00 75 1019.7
20260903220459 30 333 0.0 0.0 0.00 0.00 0.00 77 1019.6
20260903215956 29 28 0.0 0.0 0.00 0.00 0.00 77 1019.4
20260903215453 29 48 3.2 4.8 0.00 0.00 0.00 76 1019.6
20260903214951 28 20 0.0 0.0 0.00 0.00 0.00 78 1019.7
20260903214447 28 32 1.6 3.2 0.00 0.00 0.00 77 1019.8
20260903213946 28 48 3.2 3.2 0.00 0.00 0.00 78 1019.6
20260903213442 28 38 0.0 1.6 0.00 0.00 0.00 77 1019.7
20260903212938 28 57 1.6 3.2 0.00 0.00 0.00 78 1019.6
20260903212434 28 60 3.2 4.8 0.00 0.00 0.00 78 1019.7
20260903211928 28 76 1.6 3.2 0.00 0.00 0.00 81 1019.4
20260903211424 28 70 1.6 4.8 0.00 0.00 0.00 79 1019.7
20260903210920 28 89 1.6 1.6 0.00 0.00 0.00 80 1019.6
20260903210419 29 114 0.0 1.6 0.00 0.00 0.00 79 1019.7
20260903205915 30 13 0.0 0.0 0.00 0.00 0.00 74 1019.6
20260903205415 30 37 1.6 3.2 0.00 0.00 0.00 74 1019.9
20260903204909 30 26 0.0 1.6 0.00 0.00 0.00 71 1019.6
20260903204405 31 13 0.0 1.6 0.00 0.00 0.00 68 1019.8
20260903203901 31 266 1.6 1.6 0.00 0.00 0.00 66 1019.9
20260903203356 30 10 0.0 3.2 0.00 0.00 0.00 70 1020.1
20260903202855 30 46 0.0 3.2 0.00 0.00 0.00 70 1020.5
20260903202352 30 22 0.0 3.2 0.00 0.00 0.00 69 1020.6
20260903201852 30 22 1.6 1.6 0.00 0.00 0.00 69 1020.7
20260903201347 30 357 0.0 1.6 0.00 0.00 0.00 71 1020.7
20260903200846 30 22 0.0 3.2 0.00 0.00 0.00 69 1020.6
20260903200341 30 352 1.6 3.2 0.00 0.00 0.00 71 1020.8
20260903195836 29 11 1.6 1.6 0.00 0.00 0.00 72 1020.7
20260903195333 29 3 1.6 3.2 0.00 0.00 0.00 73 1020.9
20260903194827 28 22 1.6 6.4 0.00 0.00 0.00 73 1021.1
20260903194322 28 15 3.2 4.8 0.00 0.00 0.00 74 1021.0
20260903193818 28 16 3.2 4.8 0.00 0.00 0.00 75 1021.2
20260903193314 28 24 4.8 6.4 0.00 0.00 0.00 73 1021.3
20260903192809 30 13 4.8 6.4 0.00 0.00 0.00 72 1021.4
20260903192306 30 352 1.6 3.2 0.00 0.00 0.00 70 1021.2
20260903191800 30 352 1.6 3.2 0.00 0.00 0.00 69 1021.2
20260903191256 31 351 4.8 4.8 0.00 0.00 0.00 69 1021.3
20260903190750 30 21 1.6 3.2 0.00 0.00 0.00 69 1021.5
20260903190245 29 13 0.0 0.0 0.00 0.00 0.00 72 1021.7
20260903185740 28 113 1.6 3.2 0.00 0.00 0.00 75 1021.6
20260903185239 28 18 0.0 0.0 0.00 0.00 0.00 73 1021.5
20260903184736 28 23 1.6 1.6 0.00 0.00 0.00 75 1021.9
20260903184231 28 340 0.0 0.0 0.00 0.00 0.00 77 1021.6
20260903183726 27 236 0.0 3.2 0.00 0.00 0.00 77 1021.9
20260903183221 27 352 0.0 3.2 0.00 0.00 0.00 77 1021.6
20260903182719 28 5 1.6 9.7 0.00 0.00 0.00 76 1021.6
20260903182215 28 17 4.8 6.4 0.00 0.00 0.00 74 1021.8
20260903181713 28 2 4.8 6.4 0.00 0.00 0.00 75 1021.7
20260903181208 28 15 8.0 11.3 0.00 0.00 0.00 73 1021.8
20260903180704 28 13 6.4 11.3 0.00 0.00 0.00 75 1022.2
20260903180158 28 27 8.0 9.7 0.00 0.00 0.00 75 1021.8
20260903175657 29 7 6.4 11.3 0.00 0.00 0.00 73 1022.1
20260903175156 28 10 3.2 9.7 0.00 0.00 0.00 74 1022.1
20260903174651 28 348 4.8 9.7 0.00 0.00 0.00 74 1021.9
20260903174146 28 10 6.4 9.7 0.00 0.00 0.00 73 1022.1
20260903173641 31 6 4.8 6.4 0.00 0.00 0.00 62 1022.3
20260903173137 32 50 0.0 4.8 0.00 0.00 0.00 58 1022.2
20260903172638 32 287 3.2 3.2 0.00 0.00 0.00 59 1022.1
20260903172133 31 91 3.2 4.8 0.00 0.00 0.00 57 1022.2
20260903171632 31 128 6.4 6.4 0.00 0.00 0.00 59 1021.9
20260903171128 31 212 6.4 16.1 0.00 0.00 0.00 57 1022.2
20260903170627 30 213 3.2 9.7 0.00 0.00 0.00 62 1022.3
20260903170123 30 320 0.0 3.2 0.00 0.00 0.00 60 1022.3
20260903165621 31 16 3.2 4.8 0.00 0.00 0.00 61 1022.2
20260903165115 32 269 0.0 4.8 0.00 0.00 0.00 57 1022.2
20260903164610 31 246 3.2 4.8 0.00 0.00 0.00 62 1022.3
20260903164107 31 284 3.2 4.8 0.00 0.00 0.00 61 1022.4
20260903163606 30 341 3.2 6.4 0.00 0.00 0.00 59 1022.5
20260903163102 30 239 3.2 4.8 0.00 0.00 0.00 65 1022.3
20260903162558 30 161 3.2 3.2 0.00 0.00 0.00 64 1022.5
20260903162054 31 242 3.2 4.8 0.00 0.00 0.00 60 1022.6
20260903161549 31 271 1.6 9.7 0.00 0.00 0.00 59 1022.4
20260903161045 31 124 4.8 14.5 0.00 0.00 0.00 59 1022.2
20260903160544 31 213 4.8 6.4 0.00 0.00 0.00 64 1022.6
20260903160039 31 190 6.4 11.3 0.00 0.00 0.00 59 1022.5
20260903155537 31 263 6.4 9.7 0.00 0.00 0.00 61 1022.7
20260903155033 31 207 3.2 9.7 0.00 0.00 0.00 62 1022.5
20260903154530 31 359 3.2 4.8 0.00 0.00 0.00 61 1022.5
20260903154026 30 264 4.8 9.7 0.00 0.00 0.00 64 1022.5
20260903153520 30 150 8.0 11.3 0.00 0.00 0.00 66 1022.3
20260903153016 30 194 1.6 9.7 0.00 0.00 0.00 62 1022.5
20260903152512 30 227 1.6 1.6 0.00 0.00 0.00 64 1022.6
20260903152008 30 79 1.6 3.2 0.00 0.00 0.00 70 1022.6
20260903151507 30 200 1.6 3.2 0.00 0.00 0.00 66 1022.7
20260903151002 29 216 1.6 6.4 0.00 0.00 0.00 74 1022.6
20260903150457 27 90 4.8 9.7 0.00 0.00 0.00 75 1022.6
20260903145952 28 82 4.8 6.4 0.00 0.00 0.00 76 1022.6
20260903145447 28 221 1.6 4.8 0.00 0.00 0.00 69 1022.4
20260903144942 28 278 3.2 4.8 0.00 0.00 0.00 76 1022.6
20260903144441 28 129 1.6 3.2 0.00 0.00 0.00 78 1022.5
20260903143937 28 95 0.0 3.2 0.00 0.00 0.00 78 1022.6
20260903143434 27 101 3.2 3.2 0.00 0.00 0.00 80 1022.5
20260903142929 27 23 0.0 0.0 0.00 0.00 0.00 80 1022.7
20260903142425 27 55 3.2 3.2 0.00 0.00 0.00 80 1022.7
20260903141921 27 67 0.0 1.6 0.00 0.00 0.00 82 1022.7
20260903141416 26 100 3.2 3.2 0.00 0.00 0.00 85 1022.6
20260903140912 26 275 0.0 1.6 0.00 0.00 0.00 86 1022.5
20260903140406 25 62 0.0 1.6 0.00 0.00 0.00 86 1022.8
20260903135901 25 58 0.0 0.0 0.00 0.00 0.00 88 1022.6